FW5647 Weather Reports


time (UTC)temp
F
wind
direction
speed
knots
gust
knots
rain 1hr
in
rain 24hr
in
rain mn
in
humidity
%
barometer
mb
20260506014543 49 235 0.9 3.5 0.00 0.18 0.18 54 1008.5
20260506013037 50 276 1.7 5.2 0.00 0.18 0.18 53 1008.2
20260506011540 50 305 1.7 3.5 0.00 0.18 0.18 53 1007.9
20260506010036 50 253 1.7 6.1 0.00 0.18 0.18 52 1007.9
20260506004533 51 245 1.7 8.7 0.00 0.18 0.18 52 1008.1
20260506003037 51 325 2.6 10.4 0.00 0.18 0.18 52 1008.0
20260506001538 51 273 2.6 6.1 0.00 0.18 0.18 52 1008.0
20260506000037 52 268 2.6 7.8 0.00 0.18 0.18 51 1007.8
20260505234541 52 255 2.6 7.0 0.00 0.20 0.18 52 1007.6
20260505233038 52 283 2.6 7.0 0.00 0.20 0.18 53 1007.3
20260505231549 52 274 2.6 6.1 0.00 0.20 0.18 54 1007.2
20260505230048 52 267 2.6 7.8 0.00 0.20 0.18 54 1007.3
20260505224541 53 285 2.6 7.0 0.00 0.20 0.18 55 1007.4
20260505223040 53 264 2.6 10.4 0.00 0.20 0.18 55 1007.4
20260505221540 53 290 3.5 7.8 0.00 0.20 0.18 55 1007.5
20260505220036 53 224 2.6 8.7 0.00 0.20 0.18 56 1007.4
20260505214534 53 309 5.2 11.3 0.00 0.20 0.18 53 1007.4
20260505213032 53 302 4.3 7.8 0.00 0.20 0.18 60 1007.5
20260505211534 53 278 3.5 10.4 0.00 0.20 0.18 63 1007.3
20260505210038 53 280 2.6 5.2 0.00 0.20 0.18 71 1007.5
20260505204540 53 246 1.7 7.0 0.00 0.20 0.18 74 1007.5
20260505203035 52 248 1.7 7.0 0.00 0.20 0.18 75 1007.7
20260505201534 52 285 0.9 9.6 0.00 0.20 0.18 77 1007.5
20260505200035 52 279 1.7 6.1 0.00 0.20 0.18 77 1007.5
20260505194532 52 224 1.7 7.8 0.00 0.20 0.18 77 1007.5
20260505193032 51 274 1.7 6.1 0.00 0.20 0.18 78 1007.7
20260505191534 51 257 2.6 9.6 0.00 0.20 0.18 78 1008.0
20260505190036 50 243 3.5 7.0 0.00 0.20 0.18 79 1007.9
20260505184535 50 283 2.6 8.7 0.00 0.20 0.18 80 1007.7
20260505183036 51 307 3.5 10.4 0.00 0.20 0.18 81 1007.8
20260505181531 50 262 1.7 7.8 0.00 0.20 0.18 83 1007.5
20260505180045 49 254 3.5 7.8 0.01 0.20 0.18 83 1007.5
20260505174544 49 298 3.5 7.0 0.01 0.20 0.18 86 1007.5
20260505173032 48 218 2.6 7.0 0.02 0.20 0.18 87 1007.3
20260505171533 48 272 0.9 8.7 0.04 0.20 0.18 87 1006.9
20260505170032 49 274 0.9 4.3 0.06 0.19 0.17 87 1007.0
20260505164535 48 248 1.7 6.1 0.07 0.19 0.17 87 1007.2
20260505163035 48 241 2.6 9.6 0.06 0.18 0.16 85 1007.4
20260505161534 49 232 2.6 7.0 0.04 0.16 0.14 83 1007.6
20260505153033 53 300 4.3 13.9 0.00 0.12 0.10 69 1007.1
20260505151536 54 300 3.5 8.7 0.00 0.12 0.10 66 1006.8
20260505124539 57 238 2.6 7.8 0.00 0.12 0.10 72 1003.7
20260505123037 57 269 4.3 8.7 0.00 0.12 0.10 74 1003.7
20260505121535 56 274 3.5 7.8 0.00 0.12 0.10 79 1003.7
20260505120041 55 277 2.6 7.0 0.00 0.12 0.10 83 1003.9
20260505114535 55 288 1.7 9.6 0.00 0.12 0.10 87 1003.7
20260505113034 55 314 2.6 12.2 0.00 0.12 0.10 88 1003.1
20260505111532 55 283 3.5 8.7 0.00 0.12 0.10 88 1003.0
20260505101554 55 276 1.7 7.8 0.00 0.12 0.10 87 1002.0
20260505100054 55 241 2.6 6.1 0.00 0.12 0.10 87 1002.1
20260505094534 55 224 1.7 7.8 0.00 0.12 0.10 86 1001.9
20260505093031 55 244 2.6 7.8 0.00 0.12 0.10 86 1001.6
20260505091534 56 233 1.7 7.0 0.00 0.12 0.10 87 1001.7
20260505090034 56 225 5.2 11.3 0.00 0.12 0.10 87 1001.6
20260505084535 56 238 3.5 9.6 0.00 0.12 0.10 87 1001.3
20260505083035 55 283 3.5 8.7 0.00 0.12 0.10 89 1001.3
20260505081532 55 268 2.6 7.8 0.00 0.12 0.10 90 1001.1
20260505080035 55 219 0.9 3.5 0.00 0.12 0.10 90 1000.8
20260505074536 55 267 0.9 3.5 0.00 0.12 0.10 90 1000.8
20260505073038 55 129 0.0 4.3 0.00 0.12 0.10 90 1000.5
20260505071533 55 271 0.9 2.6 0.00 0.12 0.10 89 1000.4
20260505070032 56 263 0.0 2.6 0.00 0.12 0.10 88 999.9
20260505064531 56 246 0.0 2.6 0.00 0.12 0.10 88 1000.0
20260505063042 57 255 1.7 5.2 0.00 0.12 0.10 87 1000.7
20260505061539 57 285 3.5 12.2 0.00 0.12 0.10 87 1001.0
20260505060035 57 213 3.5 8.7 0.00 0.12 0.10 87 1001.2
20260505054543 57 238 2.6 9.6 0.00 0.12 0.10 86 1000.6
20260505053044 57 263 4.3 9.6 0.03 0.12 0.10 85 1000.3
20260505051543 57 241 1.7 12.2 0.07 0.12 0.10 85 1000.2
20260505041534 60 291 7.8 21.7 0.03 0.05 0.03 80 1001.7
20260505040040 64 256 4.3 10.4 0.00 0.02 0.00 72 1000.9
20260505034542 64 207 5.2 11.3 0.00 0.02 0.02 71 1000.5
20260505033032 64 197 4.3 11.3 0.00 0.02 0.02 71 1000.4
20260505031538 64 162 0.9 10.4 0.00 0.02 0.02 73 1000.3
20260505030038 64 342 5.2 13.9 0.00 0.02 0.02 73 1000.4
20260505024537 63 236 2.6 10.4 0.00 0.02 0.02 74 1000.5
20260505023042 62 195 1.7 7.0 0.00 0.02 0.02 76 1000.2
20260505021536 61 250 0.9 5.2 0.00 0.02 0.02 77 1000.4
20260505020037 62 145 1.7 9.6 0.00 0.02 0.02 76 1000.2